Date String (YYYY-MM-DD hh:mm:ss) UTC,Instrument flags,Ambient pressure (hPa),Sample flow (lpm),Bypass flow (lpm),Sample temperature (°C),Ambient temperature (°C),ASC tube jacket temperature (°C),LED temperature (°C),Box temperature (°C),Sample RH (%),Span deviation,Mass concentration (μg/m³),Mass concentration (μg/m³),Mass concentration (μg/m³)
DateTimeUTC,F1_M11,P_M11,Q1_M11,Q2_M11,T1_M11,T2_M11,T3_M11,T4_M11,T5_M11,U1_M11,ZSPAN_M11,X0_M11,X2_M11,X1_M11
2022-05-20 15:00:00,,0818.5,4.99,0.00,24.4,23.4,00.0,33.3,26.3,20.9,0000.0,0002.14,0001.90,0001.72
2022-05-20 15:01:00,,0818.4,5.01,0.00,24.4,23.4,00.0,33.3,26.4,21.0,0000.0,0002.15,0001.89,0001.72
2022-05-20 15:02:00,,0818.4,5.00,0.00,24.4,23.4,00.0,33.3,26.4,20.8,0000.0,0002.18,0001.91,0001.74
2022-05-20 15:03:00,,0818.5,5.01,0.00,24.4,23.4,00.0,33.3,26.3,20.8,0000.0,0002.18,0001.93,0001.75
2022-05-20 15:04:00,,0818.5,4.99,0.00,24.4,23.4,00.0,33.3,26.4,20.8,0000.0,0002.18,0001.95,0001.77
2022-05-20 15:05:00,,0818.4,5.00,0.00,24.4,23.4,00.0,33.3,26.4,20.7,0000.0,0002.23,0001.99,0001.80
2022-05-20 15:06:00,,0818.4,5.00,0.00,24.4,23.4,00.0,33.3,26.4,20.7,0000.0,0002.20,0001.99,0001.82
2022-05-20 15:07:00,,0818.4,4.99,0.00,24.4,23.4,00.0,33.3,26.4,20.7,0000.0,0002.21,0002.00,0001.83
2022-05-20 15:08:00,,0818.4,5.01,0.00,24.4,23.4,00.0,33.3,26.4,20.7,0000.0,0002.24,0002.02,0001.84
2022-05-20 15:09:00,,0818.4,5.00,0.00,24.4,23.4,00.0,33.3,26.4,20.8,0000.0,0002.22,0002.02,0001.84
2022-05-20 15:10:00,,0818.4,5.00,0.00,24.4,23.4,00.0,33.3,26.4,20.7,0000.0,0002.16,0002.00,0001.84
2022-05-20 15:11:00,,0818.4,5.01,0.00,24.4,23.4,00.0,33.3,26.4,20.7,0000.0,0002.16,0002.01,0001.85
2022-05-20 15:12:00,,0818.4,5.00,0.00,24.4,23.4,00.0,33.3,26.4,20.8,0000.0,0002.23,0002.05,0001.86
2022-05-20 15:13:00,,0818.5,5.01,0.00,24.4,23.5,00.0,33.3,26.4,20.7,0000.0,0002.29,0002.07,0001.87
2022-05-20 15:14:00,,0818.4,5.00,0.00,24.4,23.5,00.0,33.3,26.4,20.7,0000.0,0002.29,0002.08,0001.88
2022-05-20 15:15:00,,0818.4,5.01,0.00,24.5,23.5,00.0,33.4,26.4,20.7,0000.0,0002.29,0002.07,0001.88
2022-05-20 15:16:00,,0818.5,4.99,0.00,24.5,23.5,00.0,33.4,26.4,20.7,0000.0,0002.32,0002.07,0001.88
2022-05-20 15:17:00,,0818.7,4.99,0.00,24.5,23.5,00.0,33.4,26.4,20.8,0000.0,0002.38,0002.09,0001.86
2022-05-20 15:18:00,,0818.7,5.01,0.00,24.5,23.5,00.0,33.4,26.4,20.8,0000.0,0002.35,0002.07,0001.85
2022-05-20 15:19:00,,0818.8,4.99,0.00,24.5,23.5,00.0,33.4,26.4,20.8,0000.0,0002.30,0002.04,0001.83
2022-05-20 15:20:00,,0818.7,5.00,0.00,24.5,23.5,00.0,33.4,26.4,20.8,0000.0,0002.29,0002.03,0001.82
2022-05-20 15:21:00,,0818.7,5.00,0.00,24.5,23.5,00.0,33.4,26.4,20.8,0000.0,0002.24,0002.00,0001.81
2022-05-20 15:22:00,,0818.7,5.01,0.00,24.5,23.5,00.0,33.4,26.4,20.8,0000.0,0002.24,0002.00,0001.80
2022-05-20 15:23:00,,0818.7,5.00,0.00,24.5,23.5,00.0,33.4,26.5,20.9,0000.0,0002.21,0001.97,0001.79
2022-05-20 15:24:00,,0818.7,5.00,0.00,24.5,23.5,00.0,33.4,26.5,20.9,0000.0,0002.18,0001.96,0001.77
2022-05-20 15:25:00,,0818.8,4.99,0.00,24.5,23.5,00.0,33.4,26.5,20.9,0000.0,0002.21,0001.95,0001.75
2022-05-20 15:26:00,,0818.8,5.01,0.00,24.5,23.5,00.0,33.4,26.5,20.8,0000.0,0002.16,0001.92,0001.74
2022-05-20 15:27:00,,0818.8,4.99,0.00,24.5,23.5,00.0,33.4,26.5,20.7,0000.0,0002.09,0001.88,0001.72
2022-05-20 15:28:00,,0818.7,5.00,0.00,24.5,23.5,00.0,33.4,26.5,20.8,0000.0,0002.07,0001.87,0001.71
2022-05-20 15:29:00,,0818.7,5.01,0.00,24.5,23.5,00.0,33.4,26.5,20.8,0000.0,0002.23,0001.90,0001.71
2022-05-20 15:30:00,,0818.7,4.99,0.00,24.5,23.6,00.0,33.4,26.5,20.7,0000.0,0002.22,0001.89,0001.70
2022-05-20 15:31:00,,0818.8,4.99,0.00,24.5,23.6,00.0,33.4,26.5,20.7,0000.0,0002.19,0001.87,0001.68
2022-05-20 15:32:00,,0818.7,5.01,0.00,24.5,23.6,00.0,33.4,26.5,20.7,0000.0,0002.22,0001.87,0001.67
2022-05-20 15:33:00,,0818.7,4.99,0.00,24.5,23.6,00.0,33.4,26.5,20.6,0000.0,0002.26,0001.85,0001.66
2022-05-20 15:34:00,,0818.8,5.00,0.00,24.5,23.6,00.0,33.4,26.5,20.5,0000.0,0003.04,0001.83,0001.65
2022-05-20 15:35:00,,0818.7,5.01,0.00,24.5,23.6,00.0,33.4,26.5,20.5,0000.0,0002.99,0001.81,0001.65
2022-05-20 15:36:00,,0818.7,4.99,0.00,24.6,23.6,00.0,33.4,26.5,20.6,0000.0,0002.94,0001.80,0001.65
2022-05-20 15:37:00,,0818.8,5.01,0.00,24.6,23.6,00.0,33.5,26.5,20.7,0000.0,0003.05,0001.85,0001.67
2022-05-20 15:38:00,,0818.9,5.00,0.00,24.6,23.6,00.0,33.5,26.5,20.8,0000.0,0003.13,0001.88,0001.67
2022-05-20 15:39:00,,0818.8,5.01,0.00,24.6,23.6,00.0,33.5,26.5,20.7,0000.0,0003.15,0001.87,0001.67
2022-05-20 15:40:00,,0818.8,4.99,0.00,24.6,23.6,00.0,33.5,26.5,20.7,0000.0,0003.00,0001.83,0001.66
2022-05-20 15:41:00,,0818.7,5.00,0.00,24.6,23.6,00.0,33.5,26.5,20.7,0000.0,0003.06,0001.84,0001.66
2022-05-20 15:42:00,,0818.7,4.99,0.00,24.6,23.6,00.0,33.5,26.5,20.8,0000.0,0003.14,0001.87,0001.66
2022-05-20 15:43:00,,0818.8,5.01,0.00,24.6,23.6,00.0,33.5,26.5,20.7,0000.0,0003.15,0001.88,0001.67
2022-05-20 15:44:00,,0818.8,5.00,0.00,24.6,23.6,00.0,33.5,26.5,20.7,0000.0,0003.07,0001.88,0001.67
2022-05-20 15:45:00,,0818.8,5.01,0.00,24.6,23.6,00.0,33.5,26.5,20.8,0000.0,0002.30,0001.89,0001.67
2022-05-20 15:46:00,,0818.7,5.00,0.00,24.6,23.6,00.0,33.5,26.6,20.8,0000.0,0002.33,0001.90,0001.67
2022-05-20 15:47:00,,0818.5,5.00,0.00,24.6,23.6,00.0,33.5,26.6,20.9,0000.0,0002.37,0001.91,0001.68
2022-05-20 15:48:00,,0818.5,4.99,0.00,24.6,23.6,00.0,33.5,26.6,20.9,0000.0,0002.32,0001.89,0001.68
2022-05-20 15:49:00,,0818.5,5.00,0.00,24.6,23.6,00.0,33.5,26.6,21.0,0000.0,0002.31,0001.88,0001.67
2022-05-20 15:50:00,,0818.7,5.01,0.00,24.6,23.6,00.0,33.5,26.6,20.8,0000.0,0002.30,0001.89,0001.68
2022-05-20 15:51:00,,0818.7,4.99,0.00,24.6,23.6,00.0,33.5,26.6,20.7,0000.0,0002.27,0001.90,0001.70
2022-05-20 15:52:00,,0818.7,5.01,0.00,24.6,23.6,00.0,33.5,26.6,20.8,0000.0,0002.20,0001.89,0001.72
2022-05-20 15:53:00,,0818.7,4.98,0.00,24.6,23.6,00.0,33.5,26.6,20.8,0000.0,0002.17,0001.89,0001.74
2022-05-20 15:54:00,,0818.6,5.00,0.00,24.6,23.6,00.0,33.5,26.6,20.8,0000.0,0002.11,0001.87,0001.74
2022-05-20 15:55:00,,0818.7,5.00,0.00,24.6,23.6,00.0,33.5,26.6,20.7,0000.0,0002.12,0001.88,0001.74
2022-05-20 15:56:00,,0818.5,5.02,0.00,24.6,23.6,00.0,33.5,26.6,20.6,0000.0,0002.11,0001.87,0001.74
2022-05-20 15:57:00,,0818.4,4.99,0.00,24.6,23.6,00.0,33.5,26.6,20.5,0000.0,0002.07,0001.85,0001.73
2022-05-20 15:58:00,,0818.4,5.02,0.00,24.6,23.6,00.0,33.5,26.6,20.6,0000.0,0002.00,0001.83,0001.73
2022-05-20 15:59:00,,0818.4,4.99,0.00,24.6,23.6,00.0,33.5,26.6,20.6,0000.0,0002.09,0001.86,0001.74
